Time,TemperatureF,DewpointF,PressureIn,WindDirection,WindDirectionDegrees,WindSpeedMPH,WindSpeedGustMPH,Humidity,HourlyPrecipIn,Conditions,Clouds,dailyrainin,SolarRadiationWatts/m^2,SoftwareType,DateUTC
2013-06-08 00:00:00,53.0,48.0,-100.00,West,270,1.0,-999.0,85,-99.99,,,-99.99,0.000000,,2013-06-08 04:00:00,
2013-06-08 00:33:00,53.0,48.0,-100.00,West,270,1.0,-999.0,85,-99.99,,,-99.99,0.000000,,2013-06-08 04:33:00,
2013-06-08 00:42:00,53.0,48.0,-100.00,West,270,1.0,-999.0,85,-99.99,,,-99.99,0.000000,,2013-06-08 04:42:00,
2013-06-08 00:53:00,53.0,48.0,-100.00,West,270,1.0,-999.0,85,-99.99,,,-99.99,0.000000,,2013-06-08 04:53:00,
2013-06-08 01:00:00,54.0,51.0,-100.00,NW,315,0.0,-999.0,89,-99.99,,,-99.99,0.000000,,2013-06-08 05:00:00,
2013-06-08 01:32:00,54.0,51.0,-100.00,NW,315,0.0,-999.0,89,-99.99,,,-99.99,0.000000,,2013-06-08 05:32:00,
2013-06-08 01:42:00,54.0,51.0,-100.00,NW,315,0.0,-999.0,89,-99.99,,,-99.99,0.000000,,2013-06-08 05:42:00,
2013-06-08 01:53:00,54.0,51.0,-100.00,NW,315,0.0,-999.0,89,-99.99,,,-99.99,0.000000,,2013-06-08 05:53:00,
2013-06-08 02:00:00,55.0,52.0,-100.00,WNW,292,1.0,-999.0,90,-99.99,,,-99.99,0.000000,,2013-06-08 06:00:00,
2013-06-08 02:32:00,55.0,52.0,-100.00,WNW,292,1.0,-999.0,90,-99.99,,,-99.99,0.000000,,2013-06-08 06:32:00,
2013-06-08 02:42:00,55.0,52.0,-100.00,WNW,292,1.0,-999.0,90,-99.99,,,-99.99,0.000000,,2013-06-08 06:42:00,
2013-06-08 02:53:00,55.0,52.0,-100.00,WNW,292,1.0,-999.0,90,-99.99,,,-99.99,0.000000,,2013-06-08 06:53:00,
2013-06-08 03:00:00,55.0,52.0,-100.00,NW,315,1.0,-999.0,88,-99.99,,,-99.99,0.000000,,2013-06-08 07:00:00,
2013-06-08 03:32:00,55.0,52.0,-100.00,NW,315,1.0,-999.0,88,-99.99,,,-99.99,0.000000,,2013-06-08 07:32:00,
2013-06-08 03:42:00,55.0,52.0,-100.00,NW,315,1.0,-999.0,88,-99.99,,,-99.99,0.000000,,2013-06-08 07:42:00,
2013-06-08 03:52:00,55.0,52.0,-100.00,NW,315,1.0,-999.0,88,-99.99,,,-99.99,0.000000,,2013-06-08 07:52:00,
2013-06-08 04:00:00,55.0,52.0,-100.00,NW,315,0.0,-999.0,88,-99.99,,,-99.99,0.000000,,2013-06-08 08:00:00,
2013-06-08 04:32:00,55.0,52.0,-100.00,NW,315,0.0,-999.0,88,-99.99,,,-99.99,0.000000,,2013-06-08 08:32:00,
2013-06-08 04:42:00,55.0,52.0,-100.00,NW,315,0.0,-999.0,88,-99.99,,,-99.99,0.000000,,2013-06-08 08:42:00,
2013-06-08 04:53:00,55.0,52.0,-100.00,NW,315,0.0,-999.0,88,-99.99,,,-99.99,0.000000,,2013-06-08 08:53:00,
2013-06-08 05:00:00,55.0,52.0,-100.00,NW,315,0.0,-999.0,89,-99.99,,,-99.99,0.000000,,2013-06-08 09:00:00,
2013-06-08 05:33:00,55.0,52.0,-100.00,NW,315,0.0,-999.0,89,-99.99,,,-99.99,0.000000,,2013-06-08 09:33:00,
2013-06-08 05:43:00,55.0,52.0,-100.00,NW,315,0.0,-999.0,89,-99.99,,,-99.99,0.000000,,2013-06-08 09:43:00,
2013-06-08 05:53:00,55.0,52.0,-100.00,NW,315,0.0,-999.0,89,-99.99,,,-99.99,0.000000,,2013-06-08 09:53:00,
2013-06-08 06:00:00,55.0,52.0,-100.00,NW,315,0.0,-999.0,89,-99.99,,,-99.99,0.000000,,2013-06-08 10:00:00,
2013-06-08 06:33:00,55.0,52.0,-100.00,NW,315,0.0,-999.0,89,-99.99,,,-99.99,0.000000,,2013-06-08 10:33:00,
2013-06-08 06:43:00,55.0,52.0,-100.00,NW,315,0.0,-999.0,89,-99.99,,,-99.99,0.000000,,2013-06-08 10:43:00,
2013-06-08 06:53:00,55.0,52.0,-100.00,NW,315,0.0,-999.0,89,-99.99,,,-99.99,0.000000,,2013-06-08 10:53:00,
2013-06-08 07:00:00,55.0,52.0,-100.00,SW,225,1.0,-999.0,89,-99.99,,,-99.99,9.280000,,2013-06-08 11:00:00,
2013-06-08 07:32:00,55.0,52.0,-100.00,SW,225,1.0,-999.0,89,-99.99,,,-99.99,9.280000,,2013-06-08 11:32:00,
2013-06-08 07:42:00,55.0,52.0,-100.00,SW,225,1.0,-999.0,89,-99.99,,,-99.99,9.280000,,2013-06-08 11:42:00,
2013-06-08 07:52:00,55.0,52.0,-100.00,SW,225,1.0,-999.0,89,-99.99,,,-99.99,9.280000,,2013-06-08 11:52:00,
2013-06-08 08:00:00,57.0,53.0,-100.00,South,180,1.0,-999.0,88,-99.99,,,-99.99,107.879997,,2013-06-08 12:00:00,
2013-06-08 08:33:00,57.0,53.0,-100.00,South,180,1.0,-999.0,88,-99.99,,,-99.99,107.879997,,2013-06-08 12:33:00,
2013-06-08 08:42:00,57.0,53.0,-100.00,South,180,1.0,-999.0,88,-99.99,,,-99.99,107.879997,,2013-06-08 12:42:00,
2013-06-08 08:52:00,57.0,53.0,-100.00,South,180,1.0,-999.0,88,-99.99,,,-99.99,107.879997,,2013-06-08 12:52:00,
2013-06-08 09:00:00,62.0,52.0,-100.00,SE,135,1.0,-999.0,68,-99.99,,,-99.99,337.559998,,2013-06-08 13:00:00,
2013-06-08 09:32:00,62.0,52.0,-100.00,SE,135,1.0,-999.0,68,-99.99,,,-99.99,337.559998,,2013-06-08 13:32:00,
2013-06-08 09:42:00,62.0,52.0,-100.00,SE,135,1.0,-999.0,68,-99.99,,,-99.99,337.559998,,2013-06-08 13:42:00,
2013-06-08 09:53:00,62.0,52.0,-100.00,SE,135,1.0,-999.0,68,-99.99,,,-99.99,337.559998,,2013-06-08 13:53:00,
2013-06-08 10:00:00,64.0,50.0,-100.00,East,90,2.0,-999.0,60,-99.99,,,-99.99,293.480011,,2013-06-08 14:00:00,
2013-06-08 10:32:00,64.0,50.0,-100.00,East,90,2.0,-999.0,60,-99.99,,,-99.99,293.480011,,2013-06-08 14:32:00,
2013-06-08 10:42:00,64.0,50.0,-100.00,East,90,2.0,-999.0,60,-99.99,,,-99.99,293.480011,,2013-06-08 14:42:00,
2013-06-08 10:52:00,64.0,50.0,-100.00,East,90,2.0,-999.0,60,-99.99,,,-99.99,293.480011,,2013-06-08 14:52:00,
2013-06-08 11:00:00,64.0,51.0,-100.00,SW,225,3.0,-999.0,61,-99.99,,,-99.99,466.320007,,2013-06-08 15:00:00,
2013-06-08 11:33:00,64.0,51.0,-100.00,SW,225,3.0,-999.0,61,-99.99,,,-99.99,466.320007,,2013-06-08 15:33:00,
2013-06-08 11:43:00,64.0,51.0,-100.00,SW,225,3.0,-999.0,61,-99.99,,,-99.99,466.320007,,2013-06-08 15:43:00,
2013-06-08 11:53:00,64.0,51.0,-100.00,SW,225,3.0,-999.0,61,-99.99,,,-99.99,466.320007,,2013-06-08 15:53:00,
2013-06-08 12:00:00,66.0,51.0,-100.00,South,180,2.0,-999.0,57,-99.99,,,-99.99,649.599976,,2013-06-08 16:00:00,
2013-06-08 12:33:00,66.0,51.0,-100.00,South,180,2.0,-999.0,57,-99.99,,,-99.99,649.599976,,2013-06-08 16:33:00,
2013-06-08 12:42:00,66.0,51.0,-100.00,South,180,2.0,-999.0,57,-99.99,,,-99.99,649.599976,,2013-06-08 16:42:00,
2013-06-08 12:53:00,66.0,51.0,-100.00,South,180,2.0,-999.0,57,-99.99,,,-99.99,649.599976,,2013-06-08 16:53:00,
2013-06-08 13:00:00,69.0,51.0,-100.00,SW,225,3.0,-999.0,52,-99.99,,,-99.99,720.359985,,2013-06-08 17:00:00,
2013-06-08 13:32:00,69.0,51.0,-100.00,SW,225,3.0,-999.0,52,-99.99,,,-99.99,720.359985,,2013-06-08 17:32:00,
2013-06-08 13:42:00,69.0,51.0,-100.00,SW,225,3.0,-999.0,52,-99.99,,,-99.99,720.359985,,2013-06-08 17:42:00,
2013-06-08 13:52:00,69.0,51.0,-100.00,SW,225,3.0,-999.0,52,-99.99,,,-99.99,720.359985,,2013-06-08 17:52:00,
2013-06-08 14:00:00,71.0,50.0,-100.00,SSW,202,3.0,-999.0,48,-99.99,,,-99.99,767.919983,,2013-06-08 18:00:00,
2013-06-08 14:32:00,71.0,50.0,-100.00,SSW,202,3.0,-999.0,48,-99.99,,,-99.99,767.919983,,2013-06-08 18:32:00,
2013-06-08 14:42:00,71.0,50.0,-100.00,SSW,202,3.0,-999.0,48,-99.99,,,-99.99,767.919983,,2013-06-08 18:42:00,
2013-06-08 14:52:00,71.0,50.0,-100.00,SSW,202,3.0,-999.0,48,-99.99,,,-99.99,767.919983,,2013-06-08 18:52:00,
2013-06-08 15:00:00,72.0,51.0,-100.00,ESE,112,3.0,-999.0,46,-99.99,,,-99.99,669.320007,,2013-06-08 19:00:00,
2013-06-08 15:32:00,72.0,51.0,-100.00,ESE,112,3.0,-999.0,46,-99.99,,,-99.99,669.320007,,2013-06-08 19:32:00,
2013-06-08 15:42:00,72.0,51.0,-100.00,ESE,112,3.0,-999.0,46,-99.99,,,-99.99,669.320007,,2013-06-08 19:42:00,
2013-06-08 15:53:00,72.0,51.0,-100.00,ESE,112,3.0,-999.0,46,-99.99,,,-99.99,669.320007,,2013-06-08 19:53:00,
2013-06-08 17:00:00,71.0,52.0,-100.00,SE,135,7.0,-999.0,51,-99.99,,,-99.99,443.119995,,2013-06-08 21:00:00,
2013-06-08 17:33:00,71.0,52.0,-100.00,SE,135,7.0,-999.0,51,-99.99,,,-99.99,443.119995,,2013-06-08 21:33:00,
2013-06-08 17:43:00,71.0,52.0,-100.00,SE,135,7.0,-999.0,51,-99.99,,,-99.99,443.119995,,2013-06-08 21:43:00,
2013-06-08 17:53:00,71.0,52.0,-100.00,SE,135,7.0,-999.0,51,-99.99,,,-99.99,443.119995,,2013-06-08 21:53:00,
2013-06-08 18:00:00,70.0,52.0,-100.00,SE,135,7.0,-999.0,53,-99.99,,,-99.99,226.199997,,2013-06-08 22:00:00,
2013-06-08 18:33:00,70.0,52.0,-100.00,SE,135,7.0,-999.0,53,-99.99,,,-99.99,226.199997,,2013-06-08 22:33:00,
2013-06-08 18:43:00,70.0,52.0,-100.00,SE,135,7.0,-999.0,53,-99.99,,,-99.99,226.199997,,2013-06-08 22:43:00,
2013-06-08 18:53:00,70.0,52.0,-100.00,SE,135,7.0,-999.0,53,-99.99,,,-99.99,226.199997,,2013-06-08 22:53:00,
2013-06-08 19:00:00,69.0,52.0,-100.00,SE,135,7.0,-999.0,55,-99.99,,,-99.99,182.119995,,2013-06-08 23:00:00,
2013-06-08 19:32:00,69.0,52.0,-100.00,SE,135,7.0,-999.0,55,-99.99,,,-99.99,182.119995,,2013-06-08 23:32:00,
2013-06-08 19:42:00,69.0,52.0,-100.00,SE,135,7.0,-999.0,55,-99.99,,,-99.99,182.119995,,2013-06-08 23:42:00,
2013-06-08 19:52:00,69.0,52.0,-100.00,SE,135,7.0,-999.0,55,-99.99,,,-99.99,182.119995,,2013-06-08 23:52:00,
2013-06-08 20:00:00,68.0,53.0,-100.00,SE,135,6.0,-999.0,57,-99.99,,,-99.99,136.880005,,2013-06-09 00:00:00,
2013-06-08 20:32:00,68.0,53.0,-100.00,SE,135,6.0,-999.0,57,-99.99,,,-99.99,136.880005,,2013-06-09 00:32:00,
2013-06-08 20:42:00,68.0,53.0,-100.00,SE,135,6.0,-999.0,57,-99.99,,,-99.99,136.880005,,2013-06-09 00:42:00,
2013-06-08 20:52:00,68.0,53.0,-100.00,SE,135,6.0,-999.0,57,-99.99,,,-99.99,136.880005,,2013-06-09 00:52:00,
2013-06-08 21:00:00,65.0,52.0,-100.00,ESE,112,4.0,-999.0,63,-99.99,,,-99.99,41.759998,,2013-06-09 01:00:00,
2013-06-08 21:32:00,65.0,52.0,-100.00,ESE,112,4.0,-999.0,63,-99.99,,,-99.99,41.759998,,2013-06-09 01:32:00,
2013-06-08 21:42:00,65.0,52.0,-100.00,ESE,112,4.0,-999.0,63,-99.99,,,-99.99,41.759998,,2013-06-09 01:42:00,
2013-06-08 21:52:00,65.0,52.0,-100.00,ESE,112,4.0,-999.0,63,-99.99,,,-99.99,41.759998,,2013-06-09 01:52:00,
2013-06-08 22:00:00,62.0,53.0,-100.00,ESE,112,2.0,-999.0,72,-99.99,,,-99.99,1.160000,,2013-06-09 02:00:00,
2013-06-08 22:32:00,62.0,53.0,-100.00,ESE,112,2.0,-999.0,72,-99.99,,,-99.99,1.160000,,2013-06-09 02:32:00,
2013-06-08 22:42:00,62.0,53.0,-100.00,ESE,112,2.0,-999.0,72,-99.99,,,-99.99,1.160000,,2013-06-09 02:42:00,
2013-06-08 22:52:00,62.0,53.0,-100.00,ESE,112,2.0,-999.0,72,-99.99,,,-99.99,1.160000,,2013-06-09 02:52:00,
2013-06-08 23:00:00,60.0,53.0,-100.00,ESE,112,2.0,-999.0,77,-99.99,,,-99.99,0.000000,,2013-06-09 03:00:00,
2013-06-08 23:33:00,60.0,53.0,-100.00,ESE,112,2.0,-999.0,77,-99.99,,,-99.99,0.000000,,2013-06-09 03:33:00,
2013-06-08 23:43:00,60.0,53.0,-100.00,ESE,112,2.0,-999.0,77,-99.99,,,-99.99,0.000000,,2013-06-09 03:43:00,
2013-06-08 23:54:00,60.0,53.0,-100.00,ESE,112,2.0,-999.0,77,-99.99,,,-99.99,0.000000,,2013-06-09 03:54:00,